Regional Weather Roundup
Issued by NWS

Home | Current Version | Previous Version | Text Only | Print | Product List | Glossary Off
Versions: 1 2 3 4 5 6 7 8 9 10 11 12 13 14 15 16 17 18 19 20 21 22 23 24 25 26 27 28 29 30 31 32 33 34 35 36 37 38 39 40 41 42 43 44 45 46 47 48 49 50

000
ASUS45 KABQ 131201
RWRNM
NEW MEXICO REGIONAL WEATHER ROUNDUP
NATIONAL WEATHER SERVICE ALBUQUERQUE NM
500 AM MST SAT FEB 13 2016

NOTE: "FAIR" MEANS FEW OR NO CLOUDS BELOW 12,000 FEET AGL WITH NO
       SIGNIFICANT WEATHER OR OBSTRUCTIONS TO VISION.

      THIS PRODUCT IS RELEASED AS TWO VERSIONS.  ONE VERSION NEAR
      THE TOP OF THE HOUR CONTAINING PRELIMINARY DATA FROM ALBUQUERQUE
      AND OTHER STATIONS.  A FINAL VERSION WITH ADDITIONAL DATA IS
      ISSUED ABOUT 10 MINUTES AFTER THE HOUR.

NMZ501-503-504-510>518-131300-
NORTHWEST PLATEAU/NORTHCENTRAL MOUNTAINS

CITY           SKY/WX    TMP DP  RH WIND       PRES   REMARKS
FARMINGTON     CLOUDY    28  23  81 E9        30.29S WCI  19
6HR MIN TEMP:  27; 6HR MAX TEMP:  33;

SANTA FE       CLOUDY    32  22  66 N9        30.30S WCI  24
6HR MIN TEMP:  31; 6HR MAX TEMP:  37;

TAOS           CLOUDY    27  19  74 N5        30.33F WCI  21

$$
NMZ402-403-502-505>509-131300-
WESTCENTRAL MOUNTAINS/SOUTHWEST MOUNTAINS

CITY           SKY/WX    TMP DP  RH WIND       PRES   REMARKS
GALLUP         CLEAR     19  16  88 E3        30.33S
6HR MIN TEMP:  18; 6HR MAX TEMP:  28;

GRANTS         CLEAR     17  12  82 NW6       30.35S WCI   8
SILVER CITY      N/A     32  16  51 N12       30.30S WCI  23

$$
NMZ407-409-411-412-131300-
SOUTHERN DESERTS

CITY           SKY/WX    TMP DP  RH WIND       PRES   REMARKS
DEMING         PTCLDY    32  13  45 N5        30.25S WCI  27
6HR MIN TEMP:  32; 6HR MAX TEMP:  44;

HOLLOMAN AFB   PTCLDY    36  10  34 NE8       30.26R WCI  30
ALAMOGORDO     CLEAR     39   9  28 NE7       30.27S WCI  34
T OR C         MOCLDY    44  10  25 N7        30.27S
6HR MIN TEMP:  42; 6HR MAX TEMP:  47;


$$
NMZ519>523-131300-
CENTRAL VALLEYS/CENTRAL HIGHLANDS

CITY           SKY/WX    TMP DP  RH WIND       PRES   REMARKS
ALBUQUERQUE    CLOUDY    32  18  56 CALM      30.30S
6HR MIN TEMP:  32; 6HR MAX TEMP:  50;

DOUBLE EAGLE   CLOUDY    29  18  65 N3        30.31S
MORIARTY ARPT  FAIR      20  17  86 CALM      30.33S
6HR MIN TEMP:  18; 6HR MAX TEMP:  27;

CLINES CORNERS CLOUDY    38  19  46 W10       30.30S WCI  31
6HR MIN TEMP:  35; 6HR MAX TEMP:  44;

BELEN          FAIR      29  16  58 CALM      30.30S
6HR MIN TEMP:  28; 6HR MAX TEMP:  38;

SOCORRO        NOT AVBL

$$
NMZ524>526-539-540-131300-
SOUTHCENTRAL MOUNTAINS

CITY           SKY/WX    TMP DP  RH WIND       PRES   REMARKS
RUIDOSO          N/A     39  12  33 W7        30.36S WCI  34

$$
NMZ527>531-131300-
NORTHEAST HIGHLANDS/NORTHEAST PLAINS

CITY           SKY/WX    TMP DP  RH WIND       PRES   REMARKS
LAS VEGAS      CLOUDY    36  20  52 S14       30.29F WCI  27
6HR MIN TEMP:  33; 6HR MAX TEMP:  39;

RATON          CLOUDY    25  19  78 NE7       30.25F WCI  17
6HR MIN TEMP:  24; 6HR MAX TEMP:  33;

CLAYTON        CLOUDY    37  25  61 SW15      30.21F WCI  28
6HR MIN TEMP:  34; 6HR MAX TEMP:  41;


$$
NMZ532>537-131300-
EASTCENTRAL PLAINS

CITY           SKY/WX    TMP DP  RH WIND       PRES   REMARKS
TUCUMCARI      CLEAR     35  25  66 SW7       30.26F WCI  29
6HR MIN TEMP:  35; 6HR MAX TEMP:  45;

CANNON AFB     CLEAR     33  28  81 S2        30.29F
6HR MIN TEMP:  33; 6HR MAX TEMP:  39;

CLOVIS AIRPORT CLEAR     32  25  74 S6        30.30F WCI  26

$$
NMZ028-029-538-131300-
SOUTHEAST PLAINS

CITY           SKY/WX    TMP DP  RH WIND       PRES   REMARKS
ROSWELL        CLOUDY    32  22  66 W3        30.28S
6HR MIN TEMP:  32; 6HR MAX TEMP:  44;

ARTESIA        CLOUDY    34  23  64 NW8       30.29R WCI  27
CARLSBAD       CLOUDY    31  23  72 NW7       30.27R WCI  24
6HR MIN TEMP:  30; 6HR MAX TEMP:  40;

HOBBS          CLOUDY    36  28  75 E6        30.30R WCI  31


$$



USA.gov is the U.S. government's official web portal to all federal, state and local government web resources and services.